Location: Sungai Liu
(2.3667°N, 113.8667°E)
Time: 13:01:45
(UTC+00:00)

Cosmos 1726 Rocket - Pass Details

Date: 20 May 2022
Orbit: 601 x 630 km, 82.5° (Epoch: 04 July)

Event Time Altitude Azimuth Distance (km) Brightness Sun altitude
Rises 21:07:20 0° 340° (NNW) 2,873 7.0 -16.4°
Reaches altitude 10° 21:09:44 10° 330° (NNW) 1,966 6.0 -15.9°
Maximum altitude 21:13:37 32° 267° (W) 1,046 4.2 -15.0°
Enters shadow 21:16:23 16° 212° (SSW) 1,579 5.2 -14.3°
